Tinley Park, Illinois, United States (60477)
Lat: 41.57N, Lon: 87.78W
Wx Zone: ILZ014
Local Info
Past Weather Observations for Today

NOTE: This archive is for the closest National Weather Service station to Tinley Park. Information may differ from the station used for current weather conditions.

Click here for Long-term Archive

Time Weather Temperature Dewpoint Humidity Pressure Winds Precip Visibility
17:55
Clear
66°F / 19°C 28°F / -2°C 24% 29.95 in
(1014 mb)
NW 8.1 mph
(NW 13 kph)
- 10SM
17:35
Clear
66°F / 19°C 28°F / -2°C 24% 29.92 in
(1013 mb)
WNW 10.4 mph
(WNW 17 kph)
- 10SM
17:15
Clear
66°F / 19°C 28°F / -2°C 24% 29.92 in
(1013 mb)
WNW 10.4 mph
(WNW 17 kph)
- 10SM
16:55
Clear
68°F / 20°C 28°F / -2°C 23% 29.92 in
(1013 mb)
NW 9.2 mph
(NW 15 kph)
- 10SM
16:35
Clear
68°F / 20°C 30°F / -1°C 24% 29.92 in
(1013 mb)
WNW 11.5 mph
(WNW 19 kph)
- 10SM
16:15
Clear
70°F / 21°C 32°F / 0°C 25% 29.92 in
(1013 mb)
WNW 11.5 mph
(WNW 19 kph)
- 10SM
15:55
Clear
70°F / 21°C 30°F / -1°C 23% 29.92 in
(1013 mb)
W 15 mph
(W 24 kph)
- 10SM
15:35
Clear
72°F / 22°C 32°F / 0°C 23% 29.92 in
(1013 mb)
WNW 11.5 mph
(WNW 19 kph)
- 10SM
15:15
Clear
72°F / 22°C 32°F / 0°C 23% 29.92 in
(1013 mb)
WNW 16.1 mph
(WNW 26 kph)
- 10SM
14:55
Clear
72°F / 22°C 34°F / 1°C 25% 29.92 in
(1013 mb)
WNW 12.7 mph
(WNW 20 kph)
- 10SM
14:35
Clear
72°F / 22°C 34°F / 1°C 25% 29.92 in
(1013 mb)
NW 12.7 mph
(NW 20 kph)
- 10SM
14:15
Clear
72°F / 22°C 37°F / 3°C 29% 29.92 in
(1013 mb)
W 18.4 mph
(W 30 kph)
- 10SM
13:55
Clear
72°F / 22°C 37°F / 3°C 29% 29.92 in
(1013 mb)
W 16.1 mph
(W 26 kph)
- 10SM
13:35
Clear
72°F / 22°C 39°F / 4°C 31% 29.95 in
(1014 mb)
WNW 13.8 mph
(WNW 22 kph)
- 10SM
13:15
Clear
72°F / 22°C 39°F / 4°C 31% 29.92 in
(1013 mb)
WNW 8.1 mph
(WNW 13 kph)
- 10SM
12:55
Clear
72°F / 22°C 41°F / 5°C 33% 29.95 in
(1014 mb)
W 11.5 mph
(W 19 kph)
- 10SM
12:35
Clear
72°F / 22°C 41°F / 5°C 33% 29.95 in
(1014 mb)
WNW 8.1 mph
(WNW 13 kph)
- 10SM
12:15
Clear
70°F / 21°C 41°F / 5°C 35% 29.95 in
(1014 mb)
NW 9.2 mph
(NW 15 kph)
- 10SM
11:55
Clear
70°F / 21°C 43°F / 6°C 38% 29.95 in
(1014 mb)
NNW 12.7 mph
(NNW 20 kph)
- 10SM
11:35
Clear
70°F / 21°C 48°F / 9°C 46% 29.95 in
(1014 mb)
NW 8.1 mph
(NW 13 kph)
- 10SM
11:15
Clear
68°F / 20°C 48°F / 9°C 49% 29.98 in
(1015 mb)
NW 8.1 mph
(NW 13 kph)
- 10SM
10:55
Clear
68°F / 20°C 50°F / 10°C 53% 29.98 in
(1015 mb)
NW 10.4 mph
(NW 17 kph)
- 10SM
10:35
Clear
66°F / 19°C 54°F / 12°C 64% 29.98 in
(1015 mb)
NW 9.2 mph
(NW 15 kph)
- 10SM
10:15
Clear
66°F / 19°C 54°F / 12°C 64% 29.98 in
(1015 mb)
W 9.2 mph
(W 15 kph)
- 7SM
09:55
Clear
64°F / 18°C 55°F / 13°C 73% 29.98 in
(1015 mb)
NW 9.2 mph
(NW 15 kph)
- 7SM
09:35
Partly Cloudy
64°F / 18°C 55°F / 13°C 73% 29.95 in
(1014 mb)
W 10.4 mph
(W 17 kph)
- 7SM
09:15
Partly Cloudy
Hazy
63°F / 17°C 55°F / 13°C 77% 29.95 in
(1014 mb)
W 12.7 mph
(W 20 kph)
- 5SM
08:55
Mostly Cloudy
Hazy
61°F / 16°C 57°F / 14°C 88% 29.95 in
(1014 mb)
W 12.7 mph
(W 20 kph)
- 5SM
08:35
Partly Cloudy
Fog And Mist
61°F / 16°C 55°F / 13°C 83% 29.95 in
(1014 mb)
SSW 9.2 mph
(SSW 15 kph)
- 5SM
08:15
Mostly Cloudy
Fog And Mist
59°F / 15°C 55°F / 13°C 88% 29.95 in
(1014 mb)
SSW 8.1 mph
(SSW 13 kph)
- 3SM
07:55
Overcast
Fog And Mist
57°F / 14°C 55°F / 13°C 94% 29.95 in
(1014 mb)
SSW 5.8 mph
(SSW 9 kph)
- 2 1/2SM
07:35
Overcast
Fog And Mist
55°F / 13°C 55°F / 13°C 100% 29.95 in
(1014 mb)
SW 8.1 mph
(SW 13 kph)
- 3SM
07:15
Overcast
Fog And Mist
55°F / 13°C 55°F / 13°C 100% 29.95 in
(1014 mb)
SSW 5.8 mph
(SSW 9 kph)
- 3SM
06:55
Overcast
Fog And Mist
55°F / 13°C 54°F / 12°C 94% 29.95 in
(1014 mb)
SSW 6.9 mph
(SSW 11 kph)
- 3SM
06:35
Overcast
Fog And Mist
55°F / 13°C 54°F / 12°C 94% 29.95 in
(1014 mb)
W 6.9 mph
(W 11 kph)
- 4SM
06:15
Overcast
Fog And Mist
55°F / 13°C 54°F / 12°C 94% 29.95 in
(1014 mb)
NW 8.1 mph
(NW 13 kph)
- 3SM
05:55
Overcast
Fog And Mist
55°F / 13°C 54°F / 12°C 94% 29.92 in
(1013 mb)
WNW 5.8 mph
(WNW 9 kph)
- 3SM
05:35
Overcast
Fog And Mist
55°F / 13°C 54°F / 12°C 94% 29.92 in
(1013 mb)
NW 5.8 mph
(NW 9 kph)
- 4SM
05:15
Mostly Cloudy
Fog And Mist
54°F / 12°C 52°F / 11°C 94% 29.95 in
(1014 mb)
W 6.9 mph
(W 11 kph)
- 5SM
04:55
Partly Cloudy
Fog And Mist
50°F / 10°C 48°F / 9°C 94% 29.95 in
(1014 mb)
W 3.5 mph
(W 6 kph)
- 4SM
04:35
Clear
Fog And Mist
50°F / 10°C 48°F / 9°C 94% 29.92 in
(1013 mb)
SW 3.5 mph
(SW 6 kph)
- 5SM
04:15
Partly Cloudy
52°F / 11°C 50°F / 10°C 94% 29.92 in
(1013 mb)
SSW 3.5 mph
(SSW 6 kph)
- 7SM
03:55
Mostly Cloudy
Fog And Mist
52°F / 11°C 50°F / 10°C 94% 29.92 in
(1013 mb)
W 3.5 mph
(W 6 kph)
- 5SM
03:35
Partly Cloudy
Fog And Mist
54°F / 12°C 52°F / 11°C 94% 29.92 in
(1013 mb)
SSW 4.6 mph
(SSW 7 kph)
- 4SM
03:15
Mostly Cloudy
Fog And Mist
54°F / 12°C 52°F / 11°C 94% 29.92 in
(1013 mb)
W 4.6 mph
(W 7 kph)
- 4SM
02:55
Partly Cloudy
54°F / 12°C 52°F / 11°C 94% 29.92 in
(1013 mb)
SW 6.9 mph
(SW 11 kph)
- 7SM
02:35
Overcast
54°F / 12°C 52°F / 11°C 94% 29.92 in
(1013 mb)
SW 6.9 mph
(SW 11 kph)
- 7SM
02:15
Mostly Cloudy
54°F / 12°C 52°F / 11°C 94% 29.92 in
(1013 mb)
SW 4.6 mph
(SW 7 kph)
- 7SM
01:55
Partly Cloudy
54°F / 12°C 52°F / 11°C 94% 29.92 in
(1013 mb)
SW 4.6 mph
(SW 7 kph)
- 7SM
01:35
Mostly Cloudy
55°F / 13°C 52°F / 11°C 88% 29.92 in
(1013 mb)
SW 5.8 mph
(SW 9 kph)
- 7SM
01:15
Overcast
55°F / 13°C 52°F / 11°C 88% 29.92 in
(1013 mb)
SW 5.8 mph
(SW 9 kph)
- 10SM
00:55
Mostly Cloudy
57°F / 14°C 52°F / 11°C 82% 29.95 in
(1014 mb)
SSW 5.8 mph
(SSW 9 kph)
- 10SM
00:35
Partly Cloudy
55°F / 13°C 52°F / 11°C 88% 29.92 in
(1013 mb)
SW 5.8 mph
(SW 9 kph)
- 10SM
00:15
Mostly Cloudy
57°F / 14°C 52°F / 11°C 82% 29.92 in
(1013 mb)
SW 5.8 mph
(SW 9 kph)
- 10SM
Time Weather Temperature Dewpoint Humidity Pressure Winds Precip Visibility


Weather for websites

WeatherForYou.com, LLC is not responsible for any damages or problems caused by this service. Current weather conditions are obtained from the closest station including government and personal stations which may have varying degrees of accuracy. Weather forecasts are derived from the NOAA NDFD. Like all things, this site belongs to Jesus Christ... He just trusts me to maintain it. If you have any questions or comments email webmaster@weatherforyou.com

Copyright © 2014, WeatherForYou.com LLC. All rights reserved.